Hourly Data Report for June 30, 2018

LONDON CS
ONTARIO
Current Station Operator: ECCC - MSC

43°02'00.000" N
81°09'00.000" W
278.00 m
6144478
71622
WSN

Download Data

Hourly Data (June 2018)
Hourly Data Report for June 30, 2018
TIME Temp Definition
°C
Dew Point Definition
°C
Rel Hum Definition
%
Wind Dir Definition
10's deg

Wind Spd Definition
km/h
Visibility Definition
km
Stn Press Definition
kPa
Hmdx Definition


Wind Chill Definition


Weather Definition


00:00 22.0 18.8 82 LegendMM LegendMM   98.33 29   LegendNANA
01:00 22.4 18.8 80 LegendMM LegendMM   98.36 29   LegendNANA
02:00 22.7 19.4 82 LegendMM LegendMM   98.32 30   LegendNANA
03:00 22.6 19.7 84 LegendMM LegendMM   98.33 30   LegendNANA
04:00 22.6 20.1 86 LegendMM LegendMM   98.40 30   LegendNANA
05:00 21.9 20.3 91 LegendMM LegendMM   98.41 30   LegendNANA
06:00 23.2 20.9 87 LegendMM LegendMM   98.37 32   LegendNANA
07:00 25.0 21.8 83 LegendMM LegendMM   98.32 34   LegendNANA
08:00 26.3 22.7 81 LegendMM LegendMM   98.37 36   LegendNANA
09:00 27.4 23.2 78 LegendMM LegendMM   98.40 38   LegendNANA
10:00 28.9 23.7 73 LegendMM LegendMM   98.40 40   LegendNANA
11:00 30.6 24.0 68 LegendMM LegendMM   98.41 42   LegendNANA
12:00 31.6 24.1 64 LegendMM LegendMM   98.44 43   LegendNANA
13:00 32.5 24.8 64 LegendMM LegendMM   98.40 45   LegendNANA
14:00 32.6 23.2 58 LegendMM LegendMM   98.35 43   LegendNANA
15:00 32.0 24.7 66 LegendMM LegendMM   98.30 44   LegendNANA
16:00 31.9 25.1 67 LegendMM LegendMM   98.31 44   LegendNANA
17:00 30.7 24.3 69 LegendMM LegendMM   98.28 42   LegendNANA
18:00 30.0 23.8 69 LegendMM LegendMM   98.26 41   LegendNANA
19:00 29.1 23.8 73 LegendMM LegendMM   98.27 40   LegendNANA
20:00 27.2 22.9 78 LegendMM LegendMM   98.20 37   LegendNANA
21:00 26.5 21.7 75 LegendMM LegendMM   98.25 36   LegendNANA
22:00 26.2 21.2 74 LegendMM LegendMM   98.28 35   LegendNANA
23:00 25.8 21.0 75 LegendMM LegendMM   98.31 34   LegendNANA

Notes on Data Quality.

Legend

  • E = Estimated
  • M = Missing
  • NA = Not Available*
  • [empty] = Indicates an unobserved value
Date modified: